| time (UTC) | temp F | wind direction | speed MPH | gust MPH | rain 1hr in | rain 24hr in | rain mn in | humidity % | barometer mb |
| 20260507090005 | 49 | 345 | 0.0 | 0.0 | 0.00 | 0.83 | 0.00 | 1 | 1014.5 |
| 20260507084559 | 49 | 345 | 0.0 | 0.0 | 0.00 | 0.85 | 0.00 | 1 | 1014.6 |
| 20260507083057 | 50 | 345 | 0.0 | 0.0 | 0.00 | 0.85 | 0.00 | 1 | 1014.6 |
| 20260507081550 | 50 | 345 | 0.0 | 0.0 | 0.00 | 0.85 | 0.00 | 1 | 1014.5 |
| 20260507080111 | 49 | 345 | 0.0 | 0.0 | 0.00 | 0.85 | 0.00 | 1 | 1014.4 |
| 20260507074545 | 49 | 345 | 0.0 | 0.0 | 0.00 | 0.93 | 0.00 | 1 | 1014.1 |
| 20260507073036 | 50 | 345 | 0.0 | 0.0 | 0.00 | 0.93 | 0.00 | 1 | 1013.9 |
| 20260507071551 | 50 | 345 | 0.0 | 0.0 | 0.00 | 0.93 | 0.00 | 1 | 1013.9 |
| 20260507070027 | 50 | 345 | 0.0 | 0.0 | 0.00 | 0.93 | 0.00 | 1 | 1014.1 |
| 20260507064523 | 50 | 345 | 0.0 | 0.0 | 0.00 | 0.93 | 0.00 | 1 | 1013.9 |
| 20260507063019 | 51 | 345 | 0.0 | 0.0 | 0.00 | 0.93 | 0.00 | 1 | 1014.1 |
| 20260507061514 | 51 | 345 | 0.0 | 0.0 | 0.00 | 0.93 | 0.00 | 1 | 1014.5 |
| 20260507060010 | 51 | 345 | 0.0 | 0.0 | 0.00 | 0.93 | 0.00 | 1 | 1014.7 |
| 20260507054506 | 51 | 345 | 0.0 | 0.0 | 0.00 | 0.97 | 0.00 | 1 | 1014.7 |
| 20260507053001 | 52 | 345 | 0.0 | 0.0 | 0.00 | 0.97 | 0.00 | 1 | 1014.6 |
| 20260507051600 | 52 | 345 | 0.0 | 0.0 | 0.00 | 0.97 | 0.00 | 1 | 1014.4 |
| 20260507050053 | 52 | 345 | 0.0 | 0.0 | 0.00 | 0.97 | 0.00 | 1 | 1014.4 |
| 20260507044550 | 53 | 345 | 0.0 | 0.0 | 0.00 | 0.98 | 0.00 | 1 | 1014.6 |
| 20260507043044 | 54 | 345 | 0.0 | 0.0 | 0.00 | 0.98 | 0.00 | 1 | 1014.8 |
| 20260507041539 | 54 | 345 | 0.0 | 0.0 | 0.00 | 0.98 | 0.00 | 1 | 1014.6 |
| 20260507040038 | 55 | 345 | 0.0 | 0.0 | 0.00 | 0.98 | 0.00 | 1 | 1014.5 |
| 20260507034532 | 55 | 345 | 0.0 | 0.0 | 0.00 | 0.99 | 0.98 | 1 | 1014.4 |
| 20260507033026 | 55 | 345 | 0.0 | 0.0 | 0.00 | 0.99 | 0.98 | 1 | 1014.8 |
| 20260507031522 | 55 | 345 | 0.0 | 0.0 | 0.00 | 0.99 | 0.98 | 1 | 1014.7 |
| 20260507030018 | 55 | 345 | 0.0 | 0.0 | 0.00 | 0.99 | 0.98 | 1 | 1014.7 |
| 20260507024515 | 55 | 345 | 0.0 | 0.0 | 0.00 | 1.03 | 0.98 | 1 | 1014.8 |
| 20260507023009 | 55 | 345 | 0.0 | 0.0 | 0.00 | 1.03 | 0.98 | 1 | 1015.0 |
| 20260507021510 | 55 | 346 | 0.0 | 0.0 | 0.00 | 1.03 | 0.98 | 1 | 1014.8 |
| 20260507020002 | 55 | 346 | 0.0 | 0.0 | 0.00 | 1.03 | 0.98 | 1 | 1014.2 |
| 20260507014502 | 55 | 345 | 0.0 | 0.0 | 0.01 | 1.03 | 0.98 | 1 | 1013.8 |
| 20260507013100 | 55 | 345 | 0.0 | 0.0 | 0.01 | 1.03 | 0.98 | 1 | 1013.4 |
| 20260507011603 | 55 | 345 | 0.0 | 0.0 | 0.01 | 1.03 | 0.98 | 1 | 1013.2 |
| 20260507010052 | 55 | 328 | 0.0 | 0.0 | 0.01 | 1.03 | 0.98 | 1 | 1013.4 |
| 20260507004548 | 55 | 59 | 0.0 | 0.0 | 0.01 | 1.02 | 0.97 | 1 | 1013.6 |
| 20260507003043 | 55 | 355 | 0.0 | 0.0 | 0.01 | 1.02 | 0.97 | 1 | 1014.3 |
| 20260507001549 | 55 | 355 | 0.0 | 0.0 | 0.02 | 1.02 | 0.97 | 1 | 1013.7 |
| 20260507000038 | 55 | 355 | 0.0 | 0.0 | 0.02 | 1.02 | 0.97 | 1 | 1013.8 |
| 20260506234541 | 55 | 119 | 0.0 | 0.0 | 0.01 | 1.01 | 0.96 | 1 | 1013.0 |
| 20260506233026 | 55 | 153 | 0.0 | 0.0 | 0.01 | 1.01 | 0.96 | 1 | 1013.6 |
| 20260506231521 | 55 | 135 | 0.0 | 0.0 | 0.01 | 1.00 | 0.95 | 1 | 1013.4 |
| 20260506230016 | 55 | 355 | 0.0 | 0.0 | 0.01 | 1.00 | 0.95 | 1 | 1013.6 |
| 20260506224523 | 55 | 60 | 0.0 | 0.0 | 0.02 | 1.00 | 0.95 | 1 | 1012.8 |
| 20260506223007 | 55 | 338 | 0.0 | 0.0 | 0.02 | 1.00 | 0.95 | 1 | 1013.4 |
| 20260506221504 | 55 | 71 | 0.0 | 0.0 | 0.02 | 0.99 | 0.94 | 1 | 1012.8 |
| 20260506220109 | 55 | 107 | 0.0 | 0.0 | 0.02 | 0.99 | 0.94 | 1 | 1011.8 |
| 20260506214555 | 55 | 346 | 0.0 | 0.0 | 0.02 | 0.98 | 0.93 | 1 | 1012.6 |
| 20260506213057 | 55 | 331 | 0.0 | 0.0 | 0.02 | 0.98 | 0.93 | 1 | 1012.9 |
| 20260506211547 | 56 | 331 | 0.0 | 0.0 | 0.01 | 0.97 | 0.92 | 1 | 1013.2 |
| 20260506210042 | 56 | 331 | 0.0 | 0.0 | 0.01 | 0.97 | 0.92 | 2 | 1012.7 |
| 20260506204537 | 57 | 65 | 0.0 | 0.0 | 0.00 | 0.96 | 0.91 | 20 | 1012.2 |
| 20260506203052 | 58 | 42 | 0.0 | 0.0 | 0.00 | 0.96 | 0.91 | 42 | 1012.5 |
| 20260506201529 | 58 | 338 | 0.0 | 0.0 | 0.00 | 0.96 | 0.91 | 45 | 1012.7 |
| 20260506200026 | 57 | 331 | 0.0 | 0.0 | 0.00 | 0.96 | 0.91 | 37 | 1012.8 |
| 20260506194520 | 58 | 332 | 0.0 | 0.0 | 0.00 | 0.96 | 0.91 | 39 | 1013.3 |
| 20260506193015 | 58 | 335 | 0.0 | 0.0 | 0.00 | 0.96 | 0.91 | 41 | 1013.1 |
| 20260506191515 | 57 | 331 | 0.0 | 0.0 | 0.00 | 0.96 | 0.91 | 35 | 1012.9 |
| 20260506190007 | 57 | 262 | 0.0 | 0.0 | 0.00 | 0.96 | 0.91 | 24 | 1012.9 |
| 20260506184502 | 56 | 331 | 0.0 | 0.0 | 0.00 | 0.96 | 0.91 | 23 | 1012.8 |
| 20260506183110 | 56 | 332 | 0.0 | 0.0 | 0.00 | 0.96 | 0.91 | 20 | 1012.7 |
| 20260506181559 | 55 | 182 | 0.0 | 0.0 | 0.00 | 0.96 | 0.91 | 1 | 1012.6 |
| 20260506180051 | 54 | 5 | 0.0 | 0.0 | 0.00 | 0.96 | 0.91 | 1 | 1012.6 |
| 20260506174550 | 54 | 293 | 0.0 | 0.0 | 0.00 | 0.96 | 0.91 | 1 | 1012.7 |
| 20260506173050 | 54 | 312 | 0.0 | 0.0 | 0.00 | 0.96 | 0.91 | 1 | 1012.6 |
| 20260506171537 | 54 | 261 | 0.0 | 0.0 | 0.01 | 0.96 | 0.91 | 1 | 1012.7 |
| 20260506170030 | 53 | 319 | 0.0 | 0.0 | 0.02 | 0.96 | 0.91 | 1 | 1012.8 |
| 20260506164526 | 53 | 333 | 0.0 | 0.0 | 0.03 | 0.96 | 0.91 | 1 | 1012.5 |
| 20260506163038 | 53 | 304 | 0.0 | 0.0 | 0.04 | 0.96 | 0.91 | 1 | 1012.5 |
| 20260506161518 | 53 | 28 | 0.0 | 0.0 | 0.05 | 0.95 | 0.90 | 1 | 1012.3 |
| 20260506160013 | 53 | 80 | 0.0 | 0.0 | 0.06 | 0.94 | 0.89 | 1 | 1012.2 |
| 20260506154526 | 53 | 5 | 0.0 | 0.0 | 0.06 | 0.93 | 0.88 | 1 | 1012.1 |
| 20260506153004 | 52 | 313 | 0.0 | 0.0 | 0.06 | 0.91 | 0.86 | 1 | 1012.1 |
| 20260506151600 | 52 | 327 | 0.0 | 0.0 | 0.07 | 0.90 | 0.85 | 1 | 1012.1 |
| 20260506150056 | 52 | 330 | 0.0 | 0.0 | 0.06 | 0.88 | 0.83 | 1 | 1011.8 |
| 20260506144552 | 52 | 310 | 0.0 | 0.0 | 0.07 | 0.87 | 0.82 | 1 | 1011.7 |
| 20260506143047 | 52 | 17 | 0.0 | 0.0 | 0.08 | 0.85 | 0.80 | 1 | 1011.5 |
| 20260506141542 | 52 | 307 | 0.0 | 0.0 | 0.08 | 0.83 | 0.78 | 1 | 1011.2 |
| 20260506140039 | 52 | 5 | 0.0 | 0.0 | 0.09 | 0.81 | 0.76 | 1 | 1011.2 |
| 20260506134535 | 52 | 355 | 0.0 | 0.0 | 0.09 | 0.79 | 0.74 | 1 | 1011.1 |
| 20260506133030 | 53 | 298 | 0.0 | 0.0 | 0.11 | 0.77 | 0.72 | 1 | 1010.9 |
| 20260506131534 | 53 | 350 | 0.0 | 0.0 | 0.13 | 0.75 | 0.70 | 1 | 1010.8 |
| 20260506130022 | 54 | 294 | 0.0 | 0.0 | 0.13 | 0.72 | 0.67 | 1 | 1010.3 |
| 20260506124518 | 54 | 327 | 0.0 | 0.0 | 0.15 | 0.70 | 0.65 | 1 | 1010.1 |
| 20260506123015 | 54 | 323 | 0.0 | 0.0 | 0.13 | 0.66 | 0.61 | 1 | 1009.8 |
| 20260506121508 | 56 | 298 | 0.0 | 0.0 | 0.12 | 0.62 | 0.56 | 1 | 1009.4 |
| 20260506120010 | 59 | 304 | 0.0 | 0.0 | 0.10 | 0.57 | 0.53 | 1 | 1009.2 |
| 20260506114600 | 60 | 292 | 0.0 | 0.0 | 0.11 | 0.55 | 0.50 | 1 | 1008.5 |
| 20260506113055 | 60 | 347 | 0.0 | 0.0 | 0.13 | 0.53 | 0.48 | 1 | 1008.5 |
| 20260506111551 | 60 | 360 | 0.0 | 0.0 | 0.14 | 0.50 | 0.45 | 1 | 1008.6 |
| 20260506110047 | 60 | 360 | 0.0 | 0.0 | 0.16 | 0.48 | 0.43 | 1 | 1008.4 |
| 20260506104546 | 60 | 252 | 0.0 | 0.0 | 0.15 | 0.44 | 0.39 | 1 | 1008.0 |
| 20260506103037 | 61 | 126 | 0.0 | 0.0 | 0.14 | 0.40 | 0.35 | 1 | 1008.1 |
| 20260506101533 | 61 | 334 | 0.0 | 0.0 | 0.13 | 0.36 | 0.31 | 1 | 1008.0 |
| 20260506100034 | 61 | 13 | 0.0 | 0.0 | 0.12 | 0.32 | 0.27 | 1 | 1007.6 |
| 20260506094525 | 61 | 319 | 0.0 | 0.0 | 0.10 | 0.28 | 0.24 | 1 | 1007.6 |
| 20260506093020 | 61 | 319 | 0.0 | 0.0 | 0.07 | 0.26 | 0.21 | 1 | 1007.5 |
| 20260506091516 | 61 | 319 | 0.0 | 0.0 | 0.05 | 0.23 | 0.18 | 1 | 1007.1 |